2023/09/04 00:00:00, 4.5,21.9
2023/09/04 00:10:00, 4.5,21.9
2023/09/04 00:20:00, 4.5,21.5
2023/09/04 00:30:00, 4.6,21.5
2023/09/04 00:40:00, 4.8,21.6
2023/09/04 00:50:00, 4.8,21.5
2023/09/04 01:00:00, 4.7,21.7
2023/09/04 01:10:00, 4.7,21.5
2023/09/04 01:20:00, 4.5,21.7
2023/09/04 01:30:00, 4.4,21.7
2023/09/04 01:40:00, 4.2,21.2
2023/09/04 01:50:00, 3.9,21.5
2023/09/04 02:00:00, 3.7,21.2
2023/09/04 02:10:00, 3.6,21.3
2023/09/04 02:20:00, 3.7,21.0
2023/09/04 02:30:00, 3.7,21.0
2023/09/04 02:40:00, 3.8,21.0
2023/09/04 02:50:00, 3.9,20.8
2023/09/04 03:00:00, 3.9,20.7
2023/09/04 03:10:00, 3.9,20.5
2023/09/04 03:20:00, 3.9,20.8
2023/09/04 03:30:00, 4.0,20.6
2023/09/04 03:40:00, 4.0,20.7
2023/09/04 03:50:00, 4.0,20.8
2023/09/04 04:00:00, 4.1,20.8
2023/09/04 04:10:00, 4.0,20.5
2023/09/04 04:20:00, 4.0,20.7
2023/09/04 04:30:00, 4.1,20.6
2023/09/04 04:40:00, 4.0,20.6
2023/09/04 04:50:00, 4.0,20.6
2023/09/04 05:00:00, 3.9,20.7
2023/09/04 05:10:00, 3.9,20.7
2023/09/04 05:20:00, 3.9,20.8
2023/09/04 05:30:00, 3.9,20.9
2023/09/04 05:40:00, 3.9,20.8
2023/09/04 05:50:00, 4.0,20.6
2023/09/04 06:00:00, 4.1,20.9
2023/09/04 06:10:00, 4.1,21.4
2023/09/04 06:20:00, 4.2,21.6
2023/09/04 06:30:00, 4.2,21.9
2023/09/04 06:40:00, 4.2,22.3
2023/09/04 06:50:00, 4.2,22.5
2023/09/04 07:00:00, 4.2,22.9
2023/09/04 07:10:00, 4.1,23.3
2023/09/04 07:20:00, 4.0,24.1
2023/09/04 07:30:00, 4.0,25.4
2023/09/04 07:40:00, 3.6,25.6
2023/09/04 07:50:00, 2.9,25.8
2023/09/04 08:00:00, 2.3,25.7
2023/09/04 08:10:00, 1.5,25.6
2023/09/04 08:20:00, 0.9,25.8
2023/09/04 08:30:00, 0.7,28.1
2023/09/04 08:40:00, 0.5,28.8
2023/09/04 08:50:00, 0.3,28.6
2023/09/04 09:00:00, 0.3,27.2
2023/09/04 09:10:00, 0.3,27.9
2023/09/04 09:20:00, 0.3,27.9
2023/09/04 09:30:00, 0.5,27.4
2023/09/04 09:40:00, 0.5,26.9
2023/09/04 09:50:00, 0.5,26.5
2023/09/04 10:00:00, 0.7,28.6
2023/09/04 10:10:00, 0.3,28.3
2023/09/04 10:20:00, 0.3,27.6
2023/09/04 10:30:00, 0.3,28.3
2023/09/04 10:40:00, 0.2,27.7
2023/09/04 10:50:00, 0.3,28.0
2023/09/04 11:00:00, 0.2,29.7
2023/09/04 11:10:00, 0.3,28.4
2023/09/04 11:20:00, 0.3,29.2
2023/09/04 11:30:00, 0.4,29.6
2023/09/04 11:40:00, 0.5,29.6
2023/09/04 11:50:00, 0.5,29.6
2023/09/04 12:00:00, 0.5,30.9
2023/09/04 12:10:00, 0.5,29.6
2023/09/04 12:20:00, 0.5,29.7
2023/09/04 12:30:00, 0.5,28.9
2023/09/04 12:40:00, 0.5,29.3
2023/09/04 12:50:00, 0.5,29.4
2023/09/04 13:00:00, 0.5,31.3
2023/09/04 13:10:00, 0.5,29.3
2023/09/04 13:20:00, 0.5,29.2
2023/09/04 13:30:00, 0.5,28.9
2023/09/04 13:40:00, 0.5,29.1
2023/09/04 13:50:00, 0.5,28.8
2023/09/04 14:00:00, 0.5,29.1
2023/09/04 14:10:00, 0.5,29.0
2023/09/04 14:20:00, 0.5,28.7
2023/09/04 14:30:00, 0.5,28.6
2023/09/04 14:40:00, 0.3,28.2
2023/09/04 14:50:00, 0.3,28.9
2023/09/04 15:00:00, 0.3,30.1
2023/09/04 15:10:00, 0.5,29.2
2023/09/04 15:20:00, 0.5,28.8
2023/09/04 15:30:00, 0.5,28.4
2023/09/04 15:40:00, 0.3,27.6
2023/09/04 15:50:00, 0.3,27.7
2023/09/04 16:00:00, 0.3,27.5
2023/09/04 16:10:00, 0.3,27.2
2023/09/04 16:20:00, 0.3,26.9
2023/09/04 16:30:00, 0.4,26.7
2023/09/04 16:40:00, 0.4,26.7
2023/09/04 16:50:00, 0.4,26.4
2023/09/04 17:00:00, 0.4,26.6
2023/09/04 17:10:00, 0.4,26.9
2023/09/04 17:20:00, 0.4,27.1
2023/09/04 17:30:00, 0.5,27.2
2023/09/04 17:40:00, 0.5,26.7
2023/09/04 17:50:00, 0.6,26.0
2023/09/04 18:00:00, 1.2,25.9
2023/09/04 18:10:00, 2.5,26.2
2023/09/04 18:20:00, 3.7,25.9
2023/09/04 18:30:00, 4.3,25.8
2023/09/04 18:40:00, 4.5,25.7
2023/09/04 18:50:00, 4.7,25.7
2023/09/04 19:00:00, 4.8,25.6
2023/09/04 19:10:00, 4.8,25.7
2023/09/04 19:20:00, 4.8,25.5
2023/09/04 19:30:00, 4.8,25.6
2023/09/04 19:40:00, 4.9,25.8
2023/09/04 19:50:00, 4.9,25.7
2023/09/04 20:00:00, 4.7,25.3
2023/09/04 20:10:00, 4.6,25.4
2023/09/04 20:20:00, 4.7,25.2
2023/09/04 20:30:00, 4.7,25.2
2023/09/04 20:40:00, 4.4,25.0
2023/09/04 20:50:00, 4.2,24.8
2023/09/04 21:00:00, 4.0,24.5
2023/09/04 21:10:00, 3.9,24.6
2023/09/04 21:20:00, 3.8,24.9
2023/09/04 21:30:00, 3.7,24.7
2023/09/04 21:40:00, 3.9,24.6
2023/09/04 21:50:00, 3.9,24.6
2023/09/04 22:00:00, 3.8,24.7
2023/09/04 22:10:00, 3.9,24.6
2023/09/04 22:20:00, 3.8,24.5
2023/09/04 22:30:00, 3.5,24.8
2023/09/04 22:40:00, 3.1,24.6
2023/09/04 22:50:00, 2.4,24.6
2023/09/04 23:00:00, 0.7,24.3
2023/09/04 23:10:00, 0.5,23.9
2023/09/04 23:20:00, 0.5,23.6
2023/09/04 23:30:00, 0.6,23.4
2023/09/04 23:40:00, 0.6,23.2
2023/09/04 23:50:00, 0.7,23.3
